Galena, AK

5:22 PM AKST on January 16, 2018 (GMT -0900)
Pitka

Weather History for PAGA - November, 2012

Change the Weather History Date:

Monday, November 12, 2012

  Actual Average Record
Temperature  
Mean Temperature -16 °F -  
Max Temperature -9 °F 14 °F 44 °F (1967)
Min Temperature -22 °F 1 °F -34 °F (1956)
Degree Days  
Heating Degree Days 80    
Moisture  
Dew Point -22 °F    
Average Humidity 77    
Maximum Humidity 84    
Minimum Humidity 69    
Precipitation  
Precipitation 0.00 in - - ()
Sea Level Pressure  
Sea Level Pressure 30.26 in    
Wind  
Wind Speed 1 mph (SSW)    
Max Wind Speed 4 mph    
Max Gust Speed -    
Visibility 5 miles    
Events      
Averages and records for this station are not official NWS values.
T = Trace of Precipitation, MM = Missing Value Source: NWS Daily Summary

Daily Weather History Graph

Daily Weather History Graph

Search for Another Location

Airport or City:

Trip Planner

Search our weather history database for the weather conditions in past years. The results will help you decide how hot, cold, wet, or windy it might be!

Date:

Astronomy

Nov. 12, 2012 Rise Set
Actual Time 9:54 AM AKST 4:28 PM AKST
Civil Twilight 8:53 AM AKST 5:29 PM AKST
Nautical Twilight 7:51 AM AKST 6:30 PM AKST
Astronomical Twilight 6:54 AM AKST 7:28 PM AKST
Moon 8:18 AM AKST (11/12) 3:50 PM AKST (11/12)
Length of Visible Light 8h 36m
Length of Day
6h 34m
Waning Crescent, 2% of the Moon is Illuminated
Nov 12
Waning Crescent
Nov 13
New
Nov 20
First Quarter
Nov 28
Full
Dec 6
Last Quarter

Hourly Weather History & Observations

Time (AKST) Temp. Windchill Dew Point Humidity Pressure Visibility Wind Dir Wind Speed Gust Speed Precip Events Conditions
12:03 AM -14.8 °F -24.8 °F -18.4 °F 84% 30.14 in 1.8 mi East 3.5 mph - N/A   Overcast
12:06 AM -14.8 °F - -18.4 °F 84% 30.14 in 3.0 mi Calm Calm - N/A   Overcast
12:58 AM -15.0 °F - -20.0 °F 78% 30.19 in 10.0 mi Calm Calm - N/A   Overcast
1:58 AM -16.1 °F - -20.9 °F 79% 30.20 in 8.0 mi Calm Calm - N/A   Mostly Cloudy
2:16 AM -16.6 °F - -20.2 °F 84% 30.18 in 8.0 mi Calm Calm - N/A   Scattered Clouds
2:58 AM -17.0 °F - -20.9 °F 82% 30.20 in 7.0 mi Calm Calm - N/A   Clear
3:58 AM -18.0 °F - -24.0 °F 74% 30.22 in 7.0 mi Calm Calm - N/A   Clear
4:40 AM -18.4 °F - -23.8 °F 76% 30.20 in 8.0 mi Calm Calm - N/A   Partly Cloudy
4:49 AM -18.4 °F - -23.8 °F 76% 30.21 in 8.0 mi Calm Calm - N/A   Mostly Cloudy
4:58 AM -18.9 °F - -25.1 °F 74% 30.24 in 8.0 mi Calm Calm - N/A   Mostly Cloudy
5:58 AM -20.0 °F -30.7 °F -25.1 °F 78% 30.25 in 8.0 mi ESE 3.5 mph - N/A   Overcast
6:58 AM -18.0 °F - -23.1 °F 78% 30.25 in 9.0 mi Calm Calm - N/A   Overcast
7:35 AM -20.2 °F - -23.8 °F 83% 30.23 in 1.2 mi Calm Calm - N/A   Overcast
7:37 AM -18.4 °F - -23.8 °F 76% 30.23 in 0.8 mi Calm Calm - N/A   Haze
7:43 AM -18.4 °F - -23.8 °F 76% 30.24 in 0.5 mi Calm Calm - N/A   Haze
7:53 AM -18.4 °F - -23.8 °F 76% 30.24 in 0.2 mi Calm Calm - N/A   Haze
7:58 AM -18.9 °F - -25.1 °F 74% 30.26 in 0.2 mi Calm Calm - N/A   Haze
8:09 AM -20.2 °F - -25.6 °F 76% 30.24 in 0.5 mi Calm Calm - N/A   Haze
8:12 AM -20.2 °F - -25.6 °F 76% 30.24 in 1.0 mi Calm Calm - N/A   Haze
8:15 AM -20.2 °F - -25.6 °F 76% 30.24 in 2.0 mi Calm Calm - N/A   Haze
8:25 AM -20.2 °F - -25.6 °F 76% 30.24 in 3.0 mi Calm Calm - N/A   Haze
8:58 AM -20.9 °F - -27.0 °F 73% 30.28 in 10.0 mi Calm Calm - N/A   Overcast
9:22 AM -20.2 °F -30.9 °F -25.6 °F 76% 30.27 in 1.8 mi West 3.5 mph - N/A   Haze
9:31 AM -20.2 °F -30.9 °F -25.6 °F 76% 30.27 in 0.8 mi West 3.5 mph - N/A   Haze
9:39 AM -20.2 °F -30.9 °F -25.6 °F 76% 30.27 in 0.5 mi West 3.5 mph - N/A   Haze
9:47 AM -20.2 °F - -25.6 °F 76% 30.27 in 0.8 mi Calm Calm - N/A   Haze
9:58 AM -20.9 °F - -26.0 °F 77% 30.30 in 0.8 mi Calm Calm - N/A   Haze
10:02 AM -20.2 °F - -25.6 °F 76% 30.27 in 1.2 mi Calm Calm - N/A   Haze
10:05 AM -20.2 °F - -27.4 °F 69% 30.28 in 0.8 mi Calm Calm - N/A   Haze
10:10 AM -20.2 °F - -27.4 °F 69% 30.28 in 0.2 mi Calm Calm - N/A   Haze
10:30 AM -20.2 °F - -25.6 °F 76% 30.27 in 0.8 mi Calm Calm - N/A   Haze
10:32 AM -20.2 °F - -25.6 °F 76% 30.28 in 1.5 mi Calm Calm - N/A   Haze
10:36 AM -20.2 °F - -27.4 °F 69% 30.27 in 10.0 mi Calm Calm - N/A   Overcast
10:58 AM -22.0 °F -33.0 °F -27.0 °F 77% 30.30 in 9.0 mi ENE 3.5 mph - N/A   Overcast
11:51 AM -14.8 °F - -18.4 °F 84% 30.28 in 6.0 mi Calm Calm - N/A   Scattered Clouds
11:58 AM -13.0 °F - -17.0 °F 82% 30.30 in 6.0 mi Calm Calm - N/A   Partly Cloudy
12:09 PM -11.2 °F - -16.6 °F 77% 30.29 in 1.8 mi Calm Calm - N/A   Haze
12:13 PM -11.2 °F - -16.6 °F 77% 30.29 in 1.5 mi Calm Calm - N/A   Haze
12:19 PM -11.2 °F - -18.4 °F 70% 30.28 in 3.0 mi Calm Calm - N/A   Haze
12:58 PM -11.9 °F - -16.1 °F 82% 30.31 in 10.0 mi Calm Calm - N/A   Clear
1:14 PM -9.4 °F - -14.8 °F 77% 30.28 in 8.0 mi Calm Calm - N/A   Partly Cloudy
1:38 PM -9.4 °F - -14.8 °F 77% 30.28 in 2.5 mi Calm Calm - N/A   Haze
1:46 PM -9.4 °F - -14.8 °F 77% 30.29 in 7.0 mi Calm Calm - N/A   Clear
1:58 PM -9.0 °F - -13.0 °F 83% 30.31 in 4.0 mi Calm Calm - N/A   Clear
2:58 PM -11.9 °F - -17.0 °F 78% 30.31 in 10.0 mi Calm Calm - N/A   Clear
3:58 PM -14.1 °F - -18.0 °F 82% 30.30 in 3.0 mi Calm Calm - N/A   Clear
4:03 PM -14.8 °F - -18.4 °F 84% 30.27 in 2.0 mi Calm Calm - N/A   Clear
4:11 PM -13.0 °F - -18.4 °F 77% 30.27 in 7.0 mi Calm Calm - N/A   Clear
4:58 PM -14.1 °F - -18.9 °F 79% 30.30 in 9.0 mi Calm Calm - N/A   Clear
5:58 PM -17.0 °F - -22.0 °F 78% 30.29 in 10.0 mi Calm Calm - N/A   Clear
6:58 PM -18.0 °F - -23.1 °F 78% 30.29 in 9.0 mi Calm Calm - N/A   Clear
7:58 PM -18.9 °F - -24.0 °F 78% 30.29 in 10.0 mi Calm Calm - N/A   Clear
8:58 PM -20.0 °F - -26.0 °F 74% 30.28 in 10.0 mi Calm Calm - N/A   Clear
9:58 PM -20.9 °F - -26.0 °F 77% 30.27 in 5.0 mi Calm Calm - N/A   Haze
10:58 PM -20.9 °F - -26.0 °F 77% 30.29 in 10.0 mi Calm Calm - N/A   Clear
11:58 PM -22.0 °F - -27.9 °F 74% 30.30 in 10.0 mi Calm Calm - N/A   Clear